owner,sensor,date,latitude,longitude,vertical_datum,direction_of_sea_water_velocity,sea_water_speed,upward_sea_water_velocity,qcFlag 
TABS,ioos:station:wmo:42049:1,2014-02-01T00:00:00Z,28.3507,-96.0058,2.0,237.6708149,54.63952141,-99999.0,'11111222,11111222,99999999' 
TABS,ioos:station:wmo:42049:1,2014-02-01T00:30:00Z,28.3507,-96.0058,2.0,240.0147316,52.40389489,-99999.0,'11111222,11111222,99999999' 
TABS,ioos:station:wmo:42049:1,2014-02-01T01:00:00Z,28.3507,-96.0058,2.0,242.5232466,51.73574103,-99999.0,'11111222,11111222,99999999' 
TABS,ioos:station:wmo:42049:1,2014-02-01T01:30:00Z,28.3507,-96.0058,2.0,245.7234892,48.03776223,-99999.0,'11111222,11111222,99999999' 
TABS,ioos:station:wmo:42049:1,2014-02-01T02:00:00Z,28.3507,-96.0058,2.0,243.3067552,50.1104081,-99999.0,'11111222,11111222,99999999' 
TABS,ioos:station:wmo:42049:1,2014-02-01T02:30:00Z,28.3507,-96.0058,2.0,247.8028196,47.08974517,-99999.0,'11111222,11111222,99999999' 
TABS,ioos:station:wmo:42049:1,2014-02-01T03:00:00Z,28.3507,-96.0058,2.0,246.9932571,43.44560392,-99999.0,'11111222,11111222,99999999' 
TABS,ioos:station:wmo:42049:1,2014-02-01T03:30:00Z,28.3507,-96.0058,2.0,249.9617067,44.65302341,-99999.0,'11111222,11111222,99999999' 
TABS,ioos:station:wmo:42049:1,2014-02-01T04:00:00Z,28.3507,-96.0058,2.0,248.8253242,43.60387712,-99999.0,'11111222,11111222,99999999' 
TABS,ioos:station:wmo:42049:1,2014-02-01T04:30:00Z,28.3507,-96.0058,2.0,257.618465,35.35218947,-99999.0,'11111222,11111222,99999999' 
TABS,ioos:station:wmo:42049:1,2014-02-01T05:00:00Z,28.3507,-96.0058,2.0,260.0876682,33.52034159,-99999.0,'11111222,11111222,99999999' 
TABS,ioos:station:wmo:42049:1,2014-02-01T05:30:00Z,28.3507,-96.0058,2.0,263.2988834,36.68055752,-99999.0,'11111222,11111222,99999999' 
TABS,ioos:station:wmo:42049:1,2014-02-01T06:00:00Z,28.3507,-96.0058,2.0,266.7043315,38.2732818,-99999.0,'11111222,11111222,99999999' 
TABS,ioos:station:wmo:42049:1,2014-02-01T06:30:00Z,28.3507,-96.0058,2.0,263.3439118,37.70410322,-99999.0,'11111222,11111222,99999999' 
TABS,ioos:station:wmo:42049:1,2014-02-01T07:00:00Z,28.3507,-96.0058,2.0,265.8931745,35.33070195,-99999.0,'11111222,11111222,99999999' 
TABS,ioos:station:wmo:42049:1,2014-02-01T07:30:00Z,28.3507,-96.0058,2.0,261.9216819,34.15892855,-99999.0,'11111222,11111222,99999999' 
TABS,ioos:station:wmo:42049:1,2014-02-01T08:00:00Z,28.3507,-96.0058,2.0,266.4445847,30.1580321,-99999.0,'11111222,11111222,99999999' 
TABS,ioos:station:wmo:42049:1,2014-02-01T08:30:00Z,28.3507,-96.0058,2.0,267.0495519,31.67197184,-99999.0,'11111222,11111222,99999999' 
TABS,ioos:station:wmo:42049:1,2014-02-01T09:00:00Z,28.3507,-96.0058,2.0,264.4813322,31.71698914,-99999.0,'11111222,11111222,99999999' 
TABS,ioos:station:wmo:42049:1,2014-02-01T09:30:00Z,28.3507,-96.0058,2.0,264.6031768,30.30431322,-99999.0,'11111222,11111222,99999999' 
TABS,ioos:station:wmo:42049:1,2014-02-01T10:00:00Z,28.3507,-96.0058,2.0,259.9950549,29.01114441,-99999.0,'11111222,11111222,99999999' 
TABS,ioos:station:wmo:42049:1,2014-02-01T10:30:00Z,28.3507,-96.0058,2.0,258.9861928,26.90553289,-99999.0,'11111222,11111222,99999999' 
TABS,ioos:station:wmo:42049:1,2014-02-01T11:00:00Z,28.3507,-96.0058,2.0,247.9115833,26.35421219,-99999.0,'11111222,11111222,99999999' 
TABS,ioos:station:wmo:42049:1,2014-02-01T11:30:00Z,28.3507,-96.0058,2.0,239.4967628,28.7835387,-99999.0,'11111222,11111222,99999999' 
TABS,ioos:station:wmo:42049:1,2014-02-01T12:00:00Z,28.3507,-96.0058,2.0,248.2588509,28.07715085,-99999.0,'11111222,11111222,99999999' 
TABS,ioos:station:wmo:42049:1,2014-02-01T12:30:00Z,28.3507,-96.0058,2.0,249.8858115,24.71748571,-99999.0,'11111222,11111222,99999999' 
TABS,ioos:station:wmo:42049:1,2014-02-01T13:00:00Z,28.3507,-96.0058,2.0,246.096611,24.4576716,-99999.0,'11111222,11111222,99999999' 
TABS,ioos:station:wmo:42049:1,2014-02-01T13:30:00Z,28.3507,-96.0058,2.0,231.7740549,28.23390338,-99999.0,'11111222,11111222,99999999' 
TABS,ioos:station:wmo:42049:1,2014-02-01T14:00:00Z,28.3507,-96.0058,2.0,231.0005327,20.83238345,-99999.0,'11111222,11111222,99999999' 
TABS,ioos:station:wmo:42049:1,2014-02-01T14:30:00Z,28.3507,-96.0058,2.0,238.2853734,25.66181989,-99999.0,'11111222,11111222,99999999' 
TABS,ioos:station:wmo:42049:1,2014-02-01T15:00:00Z,28.3507,-96.0058,2.0,232.6682786,21.35469269,-99999.0,'11111222,11111222,99999999' 
TABS,ioos:station:wmo:42049:1,2014-02-01T15:30:00Z,28.3507,-96.0058,2.0,228.2727423,22.41649616,-99999.0,'11111222,11111222,99999999' 
TABS,ioos:station:wmo:42049:1,2014-02-01T16:00:00Z,28.3507,-96.0058,2.0,222.0081621,28.04671995,-99999.0,'11111222,11111222,99999999' 
TABS,ioos:station:wmo:42049:1,2014-02-01T16:30:00Z,28.3507,-96.0058,2.0,223.6087534,22.13896565,-99999.0,'11111222,11111222,99999999' 
TABS,ioos:station:wmo:42049:1,2014-02-01T17:00:00Z,28.3507,-96.0058,2.0,227.896931,23.22278622,-99999.0,'11111222,11111222,99999999' 
TABS,ioos:station:wmo:42049:1,2014-02-01T17:30:00Z,28.3507,-96.0058,2.0,222.1024848,26.161034,-99999.0,'11111222,11111222,99999999' 
TABS,ioos:station:wmo:42049:1,2014-02-01T18:00:00Z,28.3507,-96.0058,2.0,223.0225574,25.41440536,-99999.0,'11111222,11111222,99999999' 
TABS,ioos:station:wmo:42049:1,2014-02-01T18:30:00Z,28.3507,-96.0058,2.0,234.0214567,23.13280139,-99999.0,'11111222,11111222,99999999' 
TABS,ioos:station:wmo:42049:1,2014-02-01T19:00:00Z,28.3507,-96.0058,2.0,227.6260838,27.00449037,-99999.0,'11111222,11111222,99999999' 
TABS,ioos:station:wmo:42049:1,2014-02-01T19:30:00Z,28.3507,-96.0058,2.0,245.1318109,27.63203395,-99999.0,'11111222,11111222,99999999' 
TABS,ioos:station:wmo:42049:1,2014-02-01T20:00:00Z,28.3507,-96.0058,2.0,243.6981376,24.30631605,-99999.0,'11111222,11111222,99999999' 
TABS,ioos:station:wmo:42049:1,2014-02-01T20:30:00Z,28.3507,-96.0058,2.0,231.254712,27.32262981,-99999.0,'11111222,11111222,99999999' 
TABS,ioos:station:wmo:42049:1,2014-02-01T21:00:00Z,28.3507,-96.0058,2.0,232.2544797,27.10116234,-99999.0,'11111222,11111222,99999999' 
TABS,ioos:station:wmo:42049:1,2014-02-01T21:30:00Z,28.3507,-96.0058,2.0,221.7589164,28.39331788,-99999.0,'11111222,11111222,99999999' 
TABS,ioos:station:wmo:42049:1,2014-02-01T22:00:00Z,28.3507,-96.0058,2.0,224.6917182,30.25753625,-99999.0,'11111222,11111222,99999999' 
TABS,ioos:station:wmo:42049:1,2014-02-01T22:30:00Z,28.3507,-96.0058,2.0,237.4413981,37.34970415,-99999.0,'11111222,11111222,99999999' 
TABS,ioos:station:wmo:42049:1,2014-02-01T23:00:00Z,28.3507,-96.0058,2.0,237.5101472,38.38813358,-99999.0,'11111222,11111222,99999999' 
TABS,ioos:station:wmo:42049:1,2014-02-01T23:30:00Z,28.3507,-96.0058,2.0,236.8951136,39.89612137,-99999.0,'11111222,11111222,99999999' 
TABS,ioos:station:wmo:42049:1,2014-02-02T00:00:00Z,28.3507,-96.0058,2.0,239.3489828,41.11396965,-99999.0,'11111222,11111222,99999999' 
TABS,ioos:station:wmo:42049:1,2014-02-02T00:30:00Z,28.3507,-96.0058,2.0,236.885009,44.18687248,-99999.0,'11111222,11111222,99999999' 
TABS,ioos:station:wmo:42049:1,2014-02-02T01:00:00Z,28.3507,-96.0058,2.0,235.7014714,47.55990013,-99999.0,'11111222,11111222,99999999' 
TABS,ioos:station:wmo:42049:1,2014-02-02T01:30:00Z,28.3507,-96.0058,2.0,239.4398529,49.62263395,-99999.0,'11111222,11111222,99999999' 
TABS,ioos:station:wmo:42049:1,2014-02-02T02:00:00Z,28.3507,-96.0058,2.0,231.2266173,45.82927994,-99999.0,'11111222,11111222,99999999' 
TABS,ioos:station:wmo:42049:1,2014-02-02T02:30:00Z,28.3507,-96.0058,2.0,243.4721322,40.95135773,-99999.0,'11111222,11111222,99999999' 
TABS,ioos:station:wmo:42049:1,2014-02-02T03:00:00Z,28.3507,-96.0058,2.0,251.2466465,54.12321591,-99999.0,'11111222,11111222,99999999' 
TABS,ioos:station:wmo:42049:1,2014-02-02T03:30:00Z,28.3507,-96.0058,2.0,257.5184773,53.44300609,-99999.0,'11111222,11111222,99999999' 
TABS,ioos:station:wmo:42049:1,2014-02-02T04:00:00Z,28.3507,-96.0058,2.0,257.6910886,60.65420431,-99999.0,'11111222,11111222,99999999' 
TABS,ioos:station:wmo:42049:1,2014-02-02T04:30:00Z,28.3507,-96.0058,2.0,261.5550332,64.41839799,-99999.0,'11111222,11111222,99999999' 
TABS,ioos:station:wmo:42049:1,2014-02-02T05:00:00Z,28.3507,-96.0058,2.0,264.8427127,66.30839464,-99999.0,'11111222,11111222,99999999' 
TABS,ioos:station:wmo:42049:1,2014-02-02T05:30:00Z,28.3507,-96.0058,2.0,270.8345192,68.00720624,-99999.0,'11111222,11111222,99999999' 
TABS,ioos:station:wmo:42049:1,2014-02-02T06:00:00Z,28.3507,-96.0058,2.0,268.167091,65.98374497,-99999.0,'11111222,11111222,99999999' 
TABS,ioos:station:wmo:42049:1,2014-02-02T06:30:00Z,28.3507,-96.0058,2.0,271.0348015,67.58101287,-99999.0,'11111222,11111222,99999999' 
TABS,ioos:station:wmo:42049:1,2014-02-02T07:00:00Z,28.3507,-96.0058,2.0,269.7447312,62.95062271,-99999.0,'11111222,11111222,99999999' 
TABS,ioos:station:wmo:42049:1,2014-02-02T07:30:00Z,28.3507,-96.0058,2.0,276.4575941,65.97855712,-99999.0,'11111222,11111222,99999999' 
TABS,ioos:station:wmo:42049:1,2014-02-02T08:00:00Z,28.3507,-96.0058,2.0,274.8450256,62.87462604,-99999.0,'11111222,11111222,99999999' 
TABS,ioos:station:wmo:42049:1,2014-02-02T08:30:00Z,28.3507,-96.0058,2.0,277.5895915,62.46718258,-99999.0,'11111222,11111222,99999999' 
TABS,ioos:station:wmo:42049:1,2014-02-02T09:00:00Z,28.3507,-96.0058,2.0,281.6329917,63.72894868,-99999.0,'11111222,11111222,99999999' 
TABS,ioos:station:wmo:42049:1,2014-02-02T09:30:00Z,28.3507,-96.0058,2.0,281.1775139,63.453546,-99999.0,'11111222,11111222,99999999' 
TABS,ioos:station:wmo:42049:1,2014-02-02T10:00:00Z,28.3507,-96.0058,2.0,276.0974777,64.02214929,-99999.0,'11111222,11111222,99999999' 
TABS,ioos:station:wmo:42049:1,2014-02-02T10:30:00Z,28.3507,-96.0058,2.0,277.3738455,61.79096455,-99999.0,'11111222,11111222,99999999' 
TABS,ioos:station:wmo:42049:1,2014-02-02T11:00:00Z,28.3507,-96.0058,2.0,274.3451314,58.6084226,-99999.0,'11111222,11111222,99999999' 
TABS,ioos:station:wmo:42049:1,2014-02-02T11:30:00Z,28.3507,-96.0058,2.0,274.9872716,57.97947223,-99999.0,'11111222,11111222,99999999' 
TABS,ioos:station:wmo:42049:1,2014-02-02T12:00:00Z,28.3507,-96.0058,2.0,273.2205379,56.78966543,-99999.0,'11111222,11111222,99999999' 
TABS,ioos:station:wmo:42049:1,2014-02-02T12:30:00Z,28.3507,-96.0058,2.0,274.9726806,58.84143438,-99999.0,'11111222,11111222,99999999' 
TABS,ioos:station:wmo:42049:1,2014-02-02T13:00:00Z,28.3507,-96.0058,2.0,273.3606527,54.08298254,-99999.0,'11111222,11111222,99999999' 
TABS,ioos:station:wmo:42049:1,2014-02-02T13:30:00Z,28.3507,-96.0058,2.0,270.3848064,53.66120759,-99999.0,'11111222,11111222,99999999' 
TABS,ioos:station:wmo:42049:1,2014-02-02T14:00:00Z,28.3507,-96.0058,2.0,272.0438955,53.00370742,-99999.0,'11111222,11111222,99999999' 
TABS,ioos:station:wmo:42049:1,2014-02-02T14:30:00Z,28.3507,-96.0058,2.0,272.7021593,53.24918967,-99999.0,'11111222,11111222,99999999' 
TABS,ioos:station:wmo:42049:1,2014-02-02T15:00:00Z,28.3507,-96.0058,2.0,271.1887103,48.22037018,-99999.0,'11111222,11111222,99999999' 
TABS,ioos:station:wmo:42049:1,2014-02-02T15:30:00Z,28.3507,-96.0058,2.0,271.0401784,44.63734983,-99999.0,'11111222,11111222,99999999' 
TABS,ioos:station:wmo:42049:1,2014-02-02T16:00:00Z,28.3507,-96.0058,2.0,269.8112724,45.64024649,-99999.0,'11111222,11111222,99999999' 
TABS,ioos:station:wmo:42049:1,2014-02-02T16:30:00Z,28.3507,-96.0058,2.0,264.3245637,43.28213604,-99999.0,'11111222,11111222,99999999' 
TABS,ioos:station:wmo:42049:1,2014-02-02T17:00:00Z,28.3507,-96.0058,2.0,261.4260635,42.39373539,-99999.0,'11111222,11111222,99999999' 
TABS,ioos:station:wmo:42049:1,2014-02-02T17:30:00Z,28.3507,-96.0058,2.0,255.2823421,43.25928455,-99999.0,'11111222,11111222,99999999' 
TABS,ioos:station:wmo:42049:1,2014-02-02T18:00:00Z,28.3507,-96.0058,2.0,237.7890437,45.86958251,-99999.0,'11111222,11111222,99999999' 
TABS,ioos:station:wmo:42049:1,2014-02-02T18:30:00Z,28.3507,-96.0058,2.0,227.7394359,45.85879632,-99999.0,'11111222,11111222,99999999' 
TABS,ioos:station:wmo:42049:1,2014-02-02T19:00:00Z,28.3507,-96.0058,2.0,227.0410088,49.62796389,-99999.0,'11111222,11111222,99999999' 
TABS,ioos:station:wmo:42049:1,2014-02-02T19:30:00Z,28.3507,-96.0058,2.0,225.5413287,53.85565894,-99999.0,'11111222,11111222,99999999' 
TABS,ioos:station:wmo:42049:1,2014-02-02T20:00:00Z,28.3507,-96.0058,2.0,218.4962812,57.561197,-99999.0,'11111222,11111222,99999999' 
TABS,ioos:station:wmo:42049:1,2014-02-02T20:30:00Z,28.3507,-96.0058,2.0,221.8686239,57.60913556,-99999.0,'11111222,11111222,99999999' 
TABS,ioos:station:wmo:42049:1,2014-02-02T21:00:00Z,28.3507,-96.0058,2.0,220.3791979,56.88067686,-99999.0,'11111222,11111222,99999999' 
TABS,ioos:station:wmo:42049:1,2014-02-02T21:30:00Z,28.3507,-96.0058,2.0,220.7785094,57.06274617,-99999.0,'11111222,11111222,99999999' 
TABS,ioos:station:wmo:42049:1,2014-02-02T22:00:00Z,28.3507,-96.0058,2.0,222.6786353,57.44298478,-99999.0,'11111222,11111222,99999999' 
TABS,ioos:station:wmo:42049:1,2014-02-02T22:30:00Z,28.3507,-96.0058,2.0,227.9233544,54.48278352,-99999.0,'11111222,11111222,99999999' 
TABS,ioos:station:wmo:42049:1,2014-02-02T23:00:00Z,28.3507,-96.0058,2.0,230.6390367,58.86160888,-99999.0,'11111222,11111222,99999999' 
TABS,ioos:station:wmo:42049:1,2014-02-02T23:30:00Z,28.3507,-96.0058,2.0,228.4651995,63.40199681,-99999.0,'11111222,11111222,99999999' 
TABS,ioos:station:wmo:42049:1,2014-02-03T00:00:00Z,28.3507,-96.0058,2.0,228.8251187,71.11661761,-99999.0,'11111222,11111222,99999999' 
TABS,ioos:station:wmo:42049:1,2014-02-03T00:30:00Z,28.3507,-96.0058,2.0,233.618754,70.53856888,-99999.0,'11111222,11111222,99999999' 
TABS,ioos:station:wmo:42049:1,2014-02-03T01:00:00Z,28.3507,-96.0058,2.0,231.5427656,78.49811017,-99999.0,'11111222,11111222,99999999' 
TABS,ioos:station:wmo:42049:1,2014-02-03T01:30:00Z,28.3507,-96.0058,2.0,235.6912193,76.83877276,-99999.0,'11111222,11111222,99999999' 
TABS,ioos:station:wmo:42049:1,2014-02-03T02:00:00Z,28.3507,-96.0058,2.0,236.3889471,78.09631553,-99999.0,'11111222,11111222,99999999' 
TABS,ioos:station:wmo:42049:1,2014-02-03T02:30:00Z,28.3507,-96.0058,2.0,238.7380892,72.58947169,-99999.0,'11111222,11111222,99999999' 
TABS,ioos:station:wmo:42049:1,2014-02-03T03:00:00Z,28.3507,-96.0058,2.0,239.5375635,75.60633439,-99999.0,'11111222,11111222,99999999' 
TABS,ioos:station:wmo:42049:1,2014-02-03T03:30:00Z,28.3507,-96.0058,2.0,242.7861361,78.24055726,-99999.0,'11111222,11111222,99999999' 
TABS,ioos:station:wmo:42049:1,2014-02-03T04:00:00Z,28.3507,-96.0058,2.0,242.6893681,82.86674423,-99999.0,'11111222,11111222,99999999' 
TABS,ioos:station:wmo:42049:1,2014-02-03T04:30:00Z,28.3507,-96.0058,2.0,241.7905337,82.14670413,-99999.0,'11111222,11111222,99999999' 
TABS,ioos:station:wmo:42049:1,2014-02-03T05:00:00Z,28.3507,-96.0058,2.0,245.1683092,78.34296395,-99999.0,'11111222,11111222,99999999' 
TABS,ioos:station:wmo:42049:1,2014-02-03T05:30:00Z,28.3507,-96.0058,2.0,242.2892376,75.39738789,-99999.0,'11111222,11111222,99999999' 
TABS,ioos:station:wmo:42049:1,2014-02-03T06:00:00Z,28.3507,-96.0058,2.0,244.8051041,74.04397612,-99999.0,'11111222,11111222,99999999' 
TABS,ioos:station:wmo:42049:1,2014-02-03T06:30:00Z,28.3507,-96.0058,2.0,240.5384965,82.40596702,-99999.0,'11111222,11111222,99999999' 
TABS,ioos:station:wmo:42049:1,2014-02-03T07:00:00Z,28.3507,-96.0058,2.0,242.593027,78.5570697,-99999.0,'11111222,11111222,99999999' 
TABS,ioos:station:wmo:42049:1,2014-02-03T07:30:00Z,28.3507,-96.0058,2.0,242.387015,78.27546231,-99999.0,'11111222,11111222,99999999' 
TABS,ioos:station:wmo:42049:1,2014-02-03T08:00:00Z,28.3507,-96.0058,2.0,247.5793516,75.30199533,-99999.0,'11111222,11111222,99999999' 
TABS,ioos:station:wmo:42049:1,2014-02-03T08:30:00Z,28.3507,-96.0058,2.0,247.557043,69.86110363,-99999.0,'11111222,11111222,99999999' 
TABS,ioos:station:wmo:42049:1,2014-02-03T09:00:00Z,28.3507,-96.0058,2.0,246.9108457,73.31245529,-99999.0,'11111222,11111222,99999999' 
TABS,ioos:station:wmo:42049:1,2014-02-03T09:30:00Z,28.3507,-96.0058,2.0,246.6887571,73.03146514,-99999.0,'11111222,11111222,99999999' 
TABS,ioos:station:wmo:42049:1,2014-02-03T10:00:00Z,28.3507,-96.0058,2.0,245.8795804,75.68825074,-99999.0,'11111222,11111222,99999999' 
TABS,ioos:station:wmo:42049:1,2014-02-03T10:30:00Z,28.3507,-96.0058,2.0,242.0065979,73.39712937,-99999.0,'11111222,11111222,99999999' 
TABS,ioos:station:wmo:42049:1,2014-02-03T11:00:00Z,28.3507,-96.0058,2.0,246.8076341,68.48418358,-99999.0,'11111222,11111222,99999999' 
TABS,ioos:station:wmo:42049:1,2014-02-03T11:30:00Z,28.3507,-96.0058,2.0,246.3697497,64.71620894,-99999.0,'11111222,11111222,99999999' 
TABS,ioos:station:wmo:42049:1,2014-02-03T12:00:00Z,28.3507,-96.0058,2.0,244.4891591,65.84993926,-99999.0,'11111222,11111222,99999999' 
TABS,ioos:station:wmo:42049:1,2014-02-03T12:30:00Z,28.3507,-96.0058,2.0,247.6253837,74.10914249,-99999.0,'11111222,11111222,99999999' 
TABS,ioos:station:wmo:42049:1,2014-02-03T13:00:00Z,28.3507,-96.0058,2.0,248.8254271,62.59607815,-99999.0,'11111222,11111222,99999999' 
TABS,ioos:station:wmo:42049:1,2014-02-03T13:30:00Z,28.3507,-96.0058,2.0,246.2605038,70.84428629,-99999.0,'11111222,11111222,99999999' 
TABS,ioos:station:wmo:42049:1,2014-02-03T14:00:00Z,28.3507,-96.0058,2.0,243.1149005,68.93010445,-99999.0,'11111222,11111222,99999999' 
TABS,ioos:station:wmo:42049:1,2014-02-03T14:30:00Z,28.3507,-96.0058,2.0,241.8716431,67.38885516,-99999.0,'11111222,11111222,99999999' 
TABS,ioos:station:wmo:42049:1,2014-02-03T15:00:00Z,28.3507,-96.0058,2.0,240.2940116,68.81324654,-99999.0,'11111222,11111222,99999999' 
TABS,ioos:station:wmo:42049:1,2014-02-03T15:30:00Z,28.3507,-96.0058,2.0,239.3636932,62.05091861,-99999.0,'11111222,11111222,99999999' 
TABS,ioos:station:wmo:42049:1,2014-02-03T16:00:00Z,28.3507,-96.0058,2.0,242.3345254,63.12688967,-99999.0,'11111222,11111222,99999999' 
TABS,ioos:station:wmo:42049:1,2014-02-03T16:30:00Z,28.3507,-96.0058,2.0,235.5746137,66.81081499,-99999.0,'11111222,11111222,99999999' 
TABS,ioos:station:wmo:42049:1,2014-02-03T17:00:00Z,28.3507,-96.0058,2.0,241.0172547,63.19385097,-99999.0,'11111222,11111222,99999999' 
TABS,ioos:station:wmo:42049:1,2014-02-03T17:30:00Z,28.3507,-96.0058,2.0,240.3461075,64.57752628,-99999.0,'11111222,11111222,99999999' 
TABS,ioos:station:wmo:42049:1,2014-02-03T18:00:00Z,28.3507,-96.0058,2.0,242.9746534,67.4106772,-99999.0,'11111222,11111222,99999999' 
TABS,ioos:station:wmo:42049:1,2014-02-03T18:30:00Z,28.3507,-96.0058,2.0,241.6379118,74.45741938,-99999.0,'11111222,11111222,99999999' 
TABS,ioos:station:wmo:42049:1,2014-02-03T19:00:00Z,28.3507,-96.0058,2.0,238.1139825,65.44547196,-99999.0,'11111222,11111222,99999999' 
TABS,ioos:station:wmo:42049:1,2014-02-03T19:30:00Z,28.3507,-96.0058,2.0,234.3508075,64.10255611,-99999.0,'11111222,11111222,99999999' 
TABS,ioos:station:wmo:42049:1,2014-02-03T20:00:00Z,28.3507,-96.0058,2.0,238.5090307,60.0544836,-99999.0,'11111222,11111222,99999999' 
TABS,ioos:station:wmo:42049:1,2014-02-03T20:30:00Z,28.3507,-96.0058,2.0,241.5966291,59.95746826,-99999.0,'11111222,11111222,99999999' 
TABS,ioos:station:wmo:42049:1,2014-02-03T21:00:00Z,28.3507,-96.0058,2.0,243.3895993,56.95266895,-99999.0,'11111222,11111222,99999999' 
TABS,ioos:station:wmo:42049:1,2014-02-03T21:30:00Z,28.3507,-96.0058,2.0,242.249831,67.26636084,-99999.0,'11111222,11111222,99999999' 
TABS,ioos:station:wmo:42049:1,2014-02-03T22:00:00Z,28.3507,-96.0058,2.0,242.2765485,65.49886488,-99999.0,'11111222,11111222,99999999' 
TABS,ioos:station:wmo:42049:1,2014-02-03T22:30:00Z,28.3507,-96.0058,2.0,241.9031945,59.07118164,-99999.0,'11111222,11111222,99999999' 
TABS,ioos:station:wmo:42049:1,2014-02-03T23:00:00Z,28.3507,-96.0058,2.0,240.3320629,57.92303342,-99999.0,'11111222,11111222,99999999' 
TABS,ioos:station:wmo:42049:1,2014-02-03T23:30:00Z,28.3507,-96.0058,2.0,239.8562335,55.10128311,-99999.0,'11111222,11111222,99999999' 
TABS,ioos:station:wmo:42049:1,2014-02-04T00:00:00Z,28.3507,-96.0058,2.0,240.4836225,54.03244211,-99999.0,'11111222,11111222,99999999' 
TABS,ioos:station:wmo:42049:1,2014-02-04T00:30:00Z,28.3507,-96.0058,2.0,241.2466017,52.59488663,-99999.0,'11111222,11111222,99999999' 
TABS,ioos:station:wmo:42049:1,2014-02-04T01:00:00Z,28.3507,-96.0058,2.0,240.4833314,48.81549856,-99999.0,'11111222,11111222,99999999' 
TABS,ioos:station:wmo:42049:1,2014-02-04T01:30:00Z,28.3507,-96.0058,2.0,236.1729578,54.66308626,-99999.0,'11111222,11111222,99999999' 
TABS,ioos:station:wmo:42049:1,2014-02-04T02:00:00Z,28.3507,-96.0058,2.0,238.4013377,53.11465429,-99999.0,'11111222,11111222,99999999' 
TABS,ioos:station:wmo:42049:1,2014-02-04T02:30:00Z,28.3507,-96.0058,2.0,240.9008062,49.06257739,-99999.0,'11111222,11111222,99999999' 
TABS,ioos:station:wmo:42049:1,2014-02-04T03:00:00Z,28.3507,-96.0058,2.0,239.23187,48.63556826,-99999.0,'11111222,11111222,99999999' 
TABS,ioos:station:wmo:42049:1,2014-02-04T03:30:00Z,28.3507,-96.0058,2.0,238.6177395,53.57758487,-99999.0,'11111222,11111222,99999999' 
TABS,ioos:station:wmo:42049:1,2014-02-04T04:00:00Z,28.3507,-96.0058,2.0,234.4889275,54.38530132,-99999.0,'11111222,11111222,99999999' 
TABS,ioos:station:wmo:42049:1,2014-02-04T04:30:00Z,28.3507,-96.0058,2.0,230.9178274,50.88591554,-99999.0,'11111222,11111222,99999999' 
TABS,ioos:station:wmo:42049:1,2014-02-04T05:00:00Z,28.3507,-96.0058,2.0,237.6179587,57.9396738,-99999.0,'11111222,11111222,99999999' 
TABS,ioos:station:wmo:42049:1,2014-02-04T05:30:00Z,28.3507,-96.0058,2.0,236.0298907,62.49604227,-99999.0,'11111222,11111222,99999999' 
TABS,ioos:station:wmo:42049:1,2014-02-04T06:00:00Z,28.3507,-96.0058,2.0,237.491466,42.75984097,-99999.0,'11111222,11111222,99999999' 
TABS,ioos:station:wmo:42049:1,2014-02-04T06:30:00Z,28.3507,-96.0058,2.0,233.5491768,48.08728834,-99999.0,'11111222,11111222,99999999' 
TABS,ioos:station:wmo:42049:1,2014-02-04T07:00:00Z,28.3507,-96.0058,2.0,233.3777649,43.43440687,-99999.0,'11111222,11111222,99999999' 
TABS,ioos:station:wmo:42049:1,2014-02-04T07:30:00Z,28.3507,-96.0058,2.0,244.754911,40.56409866,-99999.0,'11111222,11111222,99999999' 
TABS,ioos:station:wmo:42049:1,2014-02-04T08:00:00Z,28.3507,-96.0058,2.0,245.8865376,31.67383305,-99999.0,'11111222,11111222,99999999' 
TABS,ioos:station:wmo:42049:1,2014-02-04T08:30:00Z,28.3507,-96.0058,2.0,249.6330622,43.53135192,-99999.0,'11111222,11111222,99999999' 
TABS,ioos:station:wmo:42049:1,2014-02-04T09:00:00Z,28.3507,-96.0058,2.0,243.2829274,38.85852545,-99999.0,'11111222,11111222,99999999' 
TABS,ioos:station:wmo:42049:1,2014-02-04T09:30:00Z,28.3507,-96.0058,2.0,254.9794505,37.42876568,-99999.0,'11111222,11111222,99999999' 
TABS,ioos:station:wmo:42049:1,2014-02-04T10:00:00Z,28.3507,-96.0058,2.0,251.8795167,28.19845563,-99999.0,'11111222,11111222,99999999' 
TABS,ioos:station:wmo:42049:1,2014-02-04T10:30:00Z,28.3507,-96.0058,2.0,254.7347165,35.96902695,-99999.0,'11111222,11111222,99999999' 
TABS,ioos:station:wmo:42049:1,2014-02-04T11:00:00Z,28.3507,-96.0058,2.0,242.3921976,36.38237485,-99999.0,'11111222,11111222,99999999' 
TABS,ioos:station:wmo:42049:1,2014-02-04T11:30:00Z,28.3507,-96.0058,2.0,244.0938745,39.64363757,-99999.0,'11111222,11111222,99999999' 
TABS,ioos:station:wmo:42049:1,2014-02-04T12:00:00Z,28.3507,-96.0058,2.0,243.2061441,45.98733956,-99999.0,'11111222,11111222,99999999' 
TABS,ioos:station:wmo:42049:1,2014-02-04T12:30:00Z,28.3507,-96.0058,2.0,238.3351009,42.76637113,-99999.0,'11111222,11111222,99999999' 
TABS,ioos:station:wmo:42049:1,2014-02-04T13:00:00Z,28.3507,-96.0058,2.0,240.0717329,37.66209899,-99999.0,'11111222,11111222,99999999' 
TABS,ioos:station:wmo:42049:1,2014-02-04T13:30:00Z,28.3507,-96.0058,2.0,238.672077,38.08202857,-99999.0,'11111222,11111222,99999999' 
TABS,ioos:station:wmo:42049:1,2014-02-04T14:00:00Z,28.3507,-96.0058,2.0,245.0076492,44.47426447,-99999.0,'11111222,11111222,99999999' 
TABS,ioos:station:wmo:42049:1,2014-02-04T14:30:00Z,28.3507,-96.0058,2.0,239.335847,45.86278012,-99999.0,'11111222,11111222,99999999' 
TABS,ioos:station:wmo:42049:1,2014-02-04T15:00:00Z,28.3507,-96.0058,2.0,238.9249893,46.07146622,-99999.0,'11111222,11111222,99999999' 
TABS,ioos:station:wmo:42049:1,2014-02-04T15:30:00Z,28.3507,-96.0058,2.0,230.8756331,49.7304816,-99999.0,'11111222,11111222,99999999' 
TABS,ioos:station:wmo:42049:1,2014-02-04T16:00:00Z,28.3507,-96.0058,2.0,225.5411391,40.40588571,-99999.0,'11111222,11111222,99999999' 